| time (UTC) | temp F | wind direction | speed MPH | gust MPH | rain 1hr in | rain 24hr in | rain mn in | humidity % | barometer mb |
| 20260904234031 | 66 | 221 | 1.0 | 7.0 | 0.00 | 0.00 | 0.00 | 75 | 1010.1 |
| 20260904233530 | 66 | 360 | 0.0 | 5.0 | 0.00 | 0.00 | 0.00 | 75 | 1010.0 |
| 20260904233040 | 67 | 317 | 1.0 | 4.0 | 0.00 | 0.00 | 0.00 | 74 | 1010.0 |
| 20260904232530 | 67 | 346 | 1.0 | 4.0 | 0.00 | 0.00 | 0.00 | 74 | 1010.1 |
| 20260904232030 | 67 | 334 | 0.0 | 6.0 | 0.00 | 0.00 | 0.00 | 73 | 1010.0 |
| 20260904231538 | 68 | 0 | 0.0 | 6.0 | 0.00 | 0.00 | 0.00 | 72 | 1009.9 |
| 20260904231029 | 68 | 269 | 2.0 | 6.0 | 0.00 | 0.00 | 0.00 | 71 | 1009.8 |
| 20260904230530 | 68 | 296 | 1.0 | 6.0 | 0.00 | 0.00 | 0.00 | 70 | 1009.9 |
| 20260904230105 | 69 | 259 | 1.0 | 8.0 | 0.00 | 0.00 | 0.00 | 69 | 1010.0 |
| 20260904225529 | 69 | 261 | 2.0 | 8.0 | 0.00 | 0.00 | 0.00 | 68 | 1010.1 |
| 20260904225027 | 70 | 323 | 2.0 | 10.0 | 0.00 | 0.00 | 0.00 | 67 | 1010.0 |
| 20260904224547 | 70 | 360 | 2.0 | 10.0 | 0.00 | 0.00 | 0.00 | 67 | 1010.0 |
| 20260904224030 | 70 | 340 | 2.0 | 9.0 | 0.00 | 0.00 | 0.00 | 66 | 1009.9 |
| 20260904223531 | 70 | 28 | 3.0 | 9.0 | 0.00 | 0.00 | 0.00 | 67 | 1009.9 |
| 20260904223103 | 70 | 311 | 1.0 | 8.0 | 0.00 | 0.00 | 0.00 | 67 | 1009.8 |
| 20260904222534 | 70 | 337 | 1.0 | 9.0 | 0.00 | 0.00 | 0.00 | 66 | 1009.8 |
| 20260904222032 | 70 | 273 | 3.0 | 9.0 | 0.00 | 0.00 | 0.00 | 66 | 1009.8 |
| 20260904221543 | 70 | 283 | 2.0 | 9.0 | 0.00 | 0.00 | 0.00 | 66 | 1009.8 |
| 20260904221030 | 70 | 340 | 2.0 | 9.0 | 0.00 | 0.00 | 0.00 | 66 | 1010.0 |
| 20260904220533 | 71 | 333 | 1.0 | 11.0 | 0.00 | 0.00 | 0.00 | 66 | 1010.1 |
| 20260904220052 | 71 | 0 | 4.0 | 11.0 | 0.00 | 0.00 | 0.00 | 65 | 1010.0 |
| 20260904215533 | 71 | 291 | 2.0 | 10.0 | 0.00 | 0.00 | 0.00 | 65 | 1009.9 |
| 20260904215031 | 71 | 333 | 1.0 | 10.0 | 0.00 | 0.00 | 0.00 | 64 | 1010.0 |
| 20260904214552 | 71 | 227 | 2.0 | 10.0 | 0.00 | 0.00 | 0.00 | 64 | 1009.9 |
| 20260904214030 | 72 | 328 | 3.0 | 10.0 | 0.00 | 0.00 | 0.00 | 64 | 1010.0 |
| 20260904213530 | 72 | 311 | 3.0 | 9.0 | 0.00 | 0.00 | 0.00 | 62 | 1010.0 |
| 20260904213045 | 72 | 327 | 3.0 | 9.0 | 0.00 | 0.00 | 0.00 | 61 | 1009.9 |
| 20260904212530 | 72 | 9 | 3.0 | 9.0 | 0.00 | 0.00 | 0.00 | 61 | 1009.9 |
| 20260904212028 | 73 | 304 | 3.0 | 9.0 | 0.00 | 0.00 | 0.00 | 60 | 1009.9 |
| 20260904211542 | 73 | 329 | 3.0 | 11.0 | 0.00 | 0.00 | 0.00 | 60 | 1009.9 |
| 20260904211029 | 73 | 306 | 2.0 | 18.0 | 0.00 | 0.00 | 0.00 | 59 | 1010.0 |
| 20260904210529 | 73 | 212 | 4.0 | 18.0 | 0.00 | 0.00 | 0.00 | 59 | 1009.8 |
| 20260904210048 | 75 | 236 | 2.0 | 16.0 | 0.00 | 0.00 | 0.00 | 58 | 1009.7 |
| 20260904205529 | 75 | 244 | 3.0 | 10.0 | 0.00 | 0.00 | 0.00 | 56 | 1009.9 |
| 20260904205032 | 76 | 254 | 3.0 | 10.0 | 0.00 | 0.00 | 0.00 | 55 | 1009.8 |
| 20260904204553 | 76 | 237 | 4.0 | 12.0 | 0.00 | 0.00 | 0.00 | 55 | 1009.6 |
| 20260904204029 | 76 | 315 | 3.0 | 12.0 | 0.00 | 0.00 | 0.00 | 57 | 1009.7 |
| 20260904203529 | 75 | 265 | 4.0 | 11.0 | 0.00 | 0.00 | 0.00 | 56 | 1009.8 |
| 20260904203053 | 75 | 340 | 4.0 | 14.0 | 0.00 | 0.00 | 0.00 | 58 | 1009.8 |
| 20260904202530 | 76 | 242 | 4.0 | 14.0 | 0.00 | 0.00 | 0.00 | 56 | 1009.8 |
| 20260904202029 | 76 | 286 | 3.0 | 11.0 | 0.00 | 0.00 | 0.00 | 57 | 1009.7 |
| 20260904201603 | 76 | 303 | 2.0 | 9.0 | 0.00 | 0.00 | 0.00 | 57 | 1009.7 |
| 20260904201033 | 76 | 293 | 1.0 | 10.0 | 0.00 | 0.00 | 0.00 | 60 | 1009.6 |
| 20260904200532 | 75 | 298 | 3.0 | 10.0 | 0.00 | 0.00 | 0.00 | 56 | 1009.8 |
| 20260904200108 | 76 | 297 | 3.0 | 10.0 | 0.00 | 0.00 | 0.00 | 57 | 1009.7 |
| 20260904195533 | 75 | 207 | 4.0 | 13.0 | 0.00 | 0.00 | 0.00 | 58 | 1009.7 |
| 20260904195029 | 75 | 249 | 4.0 | 14.0 | 0.00 | 0.00 | 0.00 | 56 | 1009.8 |
| 20260904194545 | 76 | 5 | 5.0 | 14.0 | 0.00 | 0.00 | 0.00 | 53 | 1009.7 |
| 20260904194031 | 76 | 22 | 5.0 | 14.0 | 0.00 | 0.00 | 0.00 | 52 | 1009.7 |
| 20260904193531 | 77 | 33 | 4.0 | 13.0 | 0.00 | 0.00 | 0.00 | 54 | 1009.8 |
| 20260904193052 | 77 | 328 | 5.0 | 13.0 | 0.00 | 0.00 | 0.00 | 55 | 1009.7 |
| 20260904192529 | 77 | 32 | 5.0 | 13.0 | 0.00 | 0.00 | 0.00 | 56 | 1009.8 |
| 20260904192032 | 77 | 321 | 3.0 | 11.0 | 0.00 | 0.00 | 0.00 | 56 | 1009.8 |
| 20260904191549 | 76 | 46 | 6.0 | 11.0 | 0.00 | 0.00 | 0.00 | 56 | 1009.8 |
| 20260904191031 | 76 | 289 | 3.0 | 11.0 | 0.00 | 0.00 | 0.00 | 54 | 1009.7 |
| 20260904190531 | 76 | 10 | 4.0 | 13.0 | 0.00 | 0.00 | 0.00 | 55 | 1009.9 |
| 20260904190044 | 76 | 182 | 4.0 | 15.0 | 0.00 | 0.00 | 0.00 | 55 | 1009.8 |
| 20260904185529 | 76 | 309 | 3.0 | 15.0 | 0.00 | 0.00 | 0.00 | 59 | 1009.8 |
| 20260904185029 | 76 | 128 | 5.0 | 15.0 | 0.00 | 0.00 | 0.00 | 56 | 1009.9 |
| 20260904184554 | 77 | 17 | 2.0 | 12.0 | 0.00 | 0.00 | 0.00 | 56 | 1009.8 |
| 20260904184030 | 76 | 46 | 4.0 | 16.0 | 0.00 | 0.00 | 0.00 | 56 | 1009.8 |
| 20260904183530 | 76 | 326 | 4.0 | 16.0 | 0.00 | 0.00 | 0.00 | 57 | 1009.8 |
| 20260904183050 | 75 | 32 | 7.0 | 16.0 | 0.00 | 0.00 | 0.00 | 56 | 1010.0 |
| 20260904182532 | 75 | 9 | 4.0 | 14.0 | 0.00 | 0.00 | 0.00 | 59 | 1010.1 |
| 20260904182035 | 75 | 5 | 4.0 | 12.0 | 0.00 | 0.00 | 0.00 | 56 | 1010.3 |
| 20260904181547 | 76 | 13 | 5.0 | 13.0 | 0.00 | 0.00 | 0.00 | 57 | 1010.4 |
| 20260904181033 | 76 | 326 | 4.0 | 13.0 | 0.00 | 0.00 | 0.00 | 61 | 1010.1 |
| 20260904180531 | 75 | 289 | 6.0 | 13.0 | 0.00 | 0.00 | 0.00 | 60 | 1010.2 |
| 20260904180043 | 75 | 352 | 4.0 | 13.0 | 0.00 | 0.00 | 0.00 | 62 | 1010.1 |
| 20260904175529 | 75 | 345 | 3.0 | 16.0 | 0.00 | 0.00 | 0.00 | 62 | 1010.0 |
| 20260904175030 | 76 | 312 | 6.0 | 16.0 | 0.00 | 0.00 | 0.00 | 61 | 1010.0 |
| 20260904174550 | 76 | 310 | 4.0 | 14.0 | 0.00 | 0.00 | 0.00 | 61 | 1009.8 |
| 20260904174029 | 75 | 327 | 4.0 | 14.0 | 0.00 | 0.00 | 0.00 | 64 | 1009.9 |
| 20260904173531 | 74 | 346 | 2.0 | 14.0 | 0.00 | 0.00 | 0.00 | 67 | 1010.0 |
| 20260904173047 | 74 | 351 | 5.0 | 12.0 | 0.00 | 0.00 | 0.00 | 65 | 1010.1 |
| 20260904172530 | 74 | 344 | 2.0 | 10.0 | 0.00 | 0.00 | 0.00 | 67 | 1010.1 |
| 20260904172028 | 74 | 346 | 3.0 | 10.0 | 0.00 | 0.00 | 0.00 | 66 | 1010.3 |
| 20260904171615 | 75 | 5 | 4.0 | 10.0 | 0.00 | 0.00 | 0.00 | 64 | 1010.3 |
| 20260904171032 | 76 | 288 | 1.0 | 11.0 | 0.00 | 0.00 | 0.00 | 64 | 1010.1 |
| 20260904170533 | 75 | 46 | 3.0 | 11.0 | 0.00 | 0.00 | 0.00 | 65 | 1010.1 |
| 20260904170051 | 75 | 257 | 3.0 | 11.0 | 0.00 | 0.00 | 0.00 | 63 | 1010.1 |
| 20260904165530 | 75 | 322 | 5.0 | 11.0 | 0.00 | 0.00 | 0.00 | 65 | 1010.2 |
| 20260904165030 | 75 | 237 | 4.0 | 10.0 | 0.00 | 0.00 | 0.00 | 65 | 1010.2 |
| 20260904164549 | 75 | 53 | 3.0 | 10.0 | 0.00 | 0.00 | 0.00 | 64 | 1010.3 |
| 20260904164031 | 75 | 317 | 3.0 | 12.0 | 0.00 | 0.00 | 0.00 | 66 | 1010.3 |
| 20260904163530 | 75 | 267 | 2.0 | 12.0 | 0.00 | 0.00 | 0.00 | 68 | 1010.3 |
| 20260904163053 | 75 | 350 | 3.0 | 11.0 | 0.00 | 0.00 | 0.00 | 65 | 1010.4 |
| 20260904162529 | 74 | 100 | 3.0 | 12.0 | 0.00 | 0.00 | 0.00 | 67 | 1010.4 |
| 20260904162029 | 74 | 5 | 3.0 | 12.0 | 0.00 | 0.00 | 0.00 | 66 | 1010.5 |
| 20260904161559 | 75 | 338 | 4.0 | 15.0 | 0.00 | 0.00 | 0.00 | 68 | 1010.6 |
| 20260904161029 | 74 | 234 | 4.0 | 15.0 | 0.00 | 0.00 | 0.00 | 66 | 1010.5 |
| 20260904160532 | 74 | 350 | 6.0 | 15.0 | 0.00 | 0.00 | 0.00 | 66 | 1010.7 |
| 20260904160058 | 74 | 340 | 5.0 | 13.0 | 0.00 | 0.00 | 0.00 | 66 | 1010.6 |
| 20260904155531 | 74 | 298 | 3.0 | 13.0 | 0.00 | 0.00 | 0.00 | 69 | 1010.6 |
| 20260904155031 | 73 | 360 | 3.0 | 13.0 | 0.00 | 0.00 | 0.00 | 71 | 1010.6 |
| 20260904154551 | 73 | 319 | 7.0 | 14.0 | 0.00 | 0.00 | 0.00 | 68 | 1010.6 |
| 20260904154032 | 73 | 55 | 6.0 | 14.0 | 0.00 | 0.00 | 0.00 | 66 | 1010.6 |
| 20260904153534 | 73 | 339 | 2.0 | 13.0 | 0.00 | 0.00 | 0.00 | 69 | 1010.9 |
| 20260904153106 | 73 | 10 | 4.0 | 12.0 | 0.00 | 0.00 | 0.00 | 68 | 1010.7 |
| 20260904152530 | 73 | 259 | 3.0 | 12.0 | 0.00 | 0.00 | 0.00 | 69 | 1010.8 |
| 20260904152030 | 72 | 261 | 3.0 | 15.0 | 0.00 | 0.00 | 0.00 | 70 | 1010.7 |
| 20260904151554 | 72 | 5 | 4.0 | 15.0 | 0.00 | 0.00 | 0.00 | 70 | 1010.9 |
| 20260904151030 | 72 | 352 | 5.0 | 14.0 | 0.00 | 0.00 | 0.00 | 68 | 1010.7 |
| 20260904150530 | 72 | 340 | 3.0 | 15.0 | 0.00 | 0.00 | 0.00 | 69 | 1010.9 |
| 20260904150053 | 72 | 349 | 7.0 | 15.0 | 0.00 | 0.00 | 0.00 | 69 | 1010.8 |
| 20260904145531 | 72 | 360 | 4.0 | 12.0 | 0.00 | 0.00 | 0.00 | 71 | 1010.8 |
| 20260904145032 | 71 | 42 | 4.0 | 12.0 | 0.00 | 0.00 | 0.00 | 74 | 1010.7 |
| 20260904144550 | 71 | 248 | 4.0 | 12.0 | 0.00 | 0.00 | 0.00 | 73 | 1010.7 |
| 20260904144031 | 71 | 293 | 3.0 | 12.0 | 0.00 | 0.00 | 0.00 | 75 | 1010.7 |
| 20260904143530 | 71 | 32 | 4.0 | 12.0 | 0.00 | 0.00 | 0.00 | 74 | 1010.6 |
| 20260904143104 | 71 | 254 | 4.0 | 11.0 | 0.00 | 0.00 | 0.00 | 75 | 1010.8 |
| 20260904142529 | 71 | 5 | 4.0 | 11.0 | 0.00 | 0.00 | 0.00 | 76 | 1010.8 |
| 20260904142028 | 70 | 313 | 5.0 | 12.0 | 0.00 | 0.00 | 0.00 | 75 | 1010.8 |
| 20260904141543 | 70 | 340 | 3.0 | 12.0 | 0.00 | 0.00 | 0.00 | 76 | 1010.8 |
| 20260904141031 | 70 | 0 | 4.0 | 12.0 | 0.00 | 0.00 | 0.00 | 76 | 1010.8 |
| 20260904140533 | 70 | 234 | 4.0 | 12.0 | 0.00 | 0.00 | 0.00 | 78 | 1010.8 |
| 20260904140054 | 69 | 272 | 3.0 | 12.0 | 0.00 | 0.00 | 0.00 | 80 | 1011.0 |
| 20260904135532 | 69 | 332 | 4.0 | 12.0 | 0.00 | 0.00 | 0.00 | 81 | 1010.8 |
| 20260904135032 | 69 | 257 | 2.0 | 10.0 | 0.00 | 0.00 | 0.00 | 83 | 1010.7 |
| 20260904134552 | 68 | 244 | 4.0 | 10.0 | 0.00 | 0.00 | 0.00 | 83 | 1010.8 |
| 20260904134031 | 68 | 240 | 3.0 | 10.0 | 0.00 | 0.00 | 0.00 | 86 | 1010.8 |
| 20260904133531 | 67 | 252 | 2.0 | 9.0 | 0.00 | 0.00 | 0.00 | 87 | 1010.9 |
| 20260904133105 | 67 | 234 | 2.0 | 9.0 | 0.00 | 0.00 | 0.00 | 89 | 1010.9 |
| 20260904132531 | 67 | 344 | 4.0 | 9.0 | 0.00 | 0.00 | 0.00 | 88 | 1010.8 |
| 20260904132027 | 66 | 227 | 3.0 | 10.0 | 0.00 | 0.00 | 0.00 | 90 | 1010.8 |
| 20260904131552 | 66 | 254 | 3.0 | 10.0 | 0.00 | 0.00 | 0.00 | 92 | 1010.8 |
| 20260904131031 | 65 | 246 | 2.0 | 10.0 | 0.00 | 0.00 | 0.00 | 93 | 1010.8 |
| 20260904130533 | 65 | 259 | 3.0 | 10.0 | 0.00 | 0.00 | 0.00 | 94 | 1010.8 |
| 20260904130055 | 65 | 13 | 2.0 | 7.0 | 0.00 | 0.00 | 0.00 | 96 | 1010.8 |
| 20260904125531 | 64 | 280 | 2.0 | 7.0 | 0.00 | 0.00 | 0.00 | 97 | 1010.9 |
| 20260904125032 | 64 | 257 | 3.0 | 7.0 | 0.00 | 0.00 | 0.00 | 97 | 1010.9 |
| 20260904124554 | 63 | 281 | 3.0 | 6.0 | 0.00 | 0.00 | 0.00 | 97 | 1010.9 |
| 20260904124033 | 63 | 261 | 2.0 | 5.0 | 0.00 | 0.00 | 0.00 | 97 | 1010.8 |
| 20260904123531 | 62 | 233 | 2.0 | 5.0 | 0.00 | 0.00 | 0.00 | 98 | 1011.0 |
| 20260904123049 | 62 | 251 | 2.0 | 5.0 | 0.00 | 0.00 | 0.00 | 97 | 1010.8 |
| 20260904122528 | 62 | 259 | 2.0 | 7.0 | 0.00 | 0.00 | 0.00 | 98 | 1010.8 |
| 20260904122031 | 62 | 234 | 2.0 | 8.0 | 0.00 | 0.00 | 0.00 | 97 | 1010.9 |
| 20260904121549 | 61 | 283 | 3.0 | 8.0 | 0.00 | 0.00 | 0.00 | 97 | 1010.9 |
| 20260904121028 | 62 | 272 | 2.0 | 6.0 | 0.00 | 0.00 | 0.00 | 98 | 1010.9 |
| 20260904120529 | 61 | 255 | 2.0 | 7.0 | 0.00 | 0.00 | 0.00 | 98 | 1010.8 |
| 20260904120058 | 61 | 254 | 2.0 | 7.0 | 0.00 | 0.00 | 0.00 | 98 | 1010.8 |
| 20260904115531 | 61 | 263 | 2.0 | 7.0 | 0.00 | 0.00 | 0.00 | 98 | 1010.9 |
| 20260904115032 | 61 | 265 | 1.0 | 6.0 | 0.00 | 0.00 | 0.00 | 98 | 1010.8 |
| 20260904114548 | 61 | 234 | 3.0 | 6.0 | 0.00 | 0.00 | 0.00 | 98 | 1010.8 |
| 20260904114028 | 60 | 246 | 2.0 | 5.0 | 0.00 | 0.00 | 0.00 | 98 | 1010.8 |
| 20260904113531 | 60 | 252 | 1.0 | 5.0 | 0.00 | 0.00 | 0.00 | 98 | 1010.8 |
| 20260904113055 | 60 | 239 | 2.0 | 6.0 | 0.00 | 0.00 | 0.00 | 98 | 1010.7 |
| 20260904112530 | 60 | 273 | 3.0 | 7.0 | 0.00 | 0.00 | 0.00 | 98 | 1010.7 |
| 20260904112033 | 60 | 263 | 2.0 | 7.0 | 0.00 | 0.00 | 0.00 | 98 | 1010.6 |
| 20260904111552 | 59 | 0 | 1.0 | 6.0 | 0.00 | 0.00 | 0.00 | 98 | 1010.6 |
| 20260904111030 | 59 | 257 | 1.0 | 4.0 | 0.00 | 0.00 | 0.00 | 98 | 1010.6 |
| 20260904110531 | 59 | 0 | 1.0 | 4.0 | 0.00 | 0.00 | 0.00 | 98 | 1010.4 |
| 20260904110051 | 59 | 262 | 1.0 | 6.0 | 0.00 | 0.00 | 0.00 | 98 | 1010.5 |
| 20260904105534 | 59 | 255 | 2.0 | 6.0 | 0.00 | 0.01 | 0.00 | 98 | 1010.5 |
| 20260904105030 | 59 | 252 | 1.0 | 4.0 | 0.00 | 0.01 | 0.00 | 98 | 1010.5 |
| 20260904104545 | 58 | 242 | 1.0 | 6.0 | 0.00 | 0.01 | 0.00 | 97 | 1010.4 |
| 20260904104031 | 58 | 261 | 2.0 | 6.0 | 0.00 | 0.01 | 0.00 | 97 | 1010.6 |
| 20260904103530 | 58 | 267 | 2.0 | 6.0 | 0.00 | 0.01 | 0.00 | 97 | 1010.3 |
| 20260904103053 | 58 | 252 | 1.0 | 3.0 | 0.00 | 0.01 | 0.00 | 97 | 1010.4 |
| 20260904102528 | 58 | 246 | 1.0 | 4.0 | 0.00 | 0.01 | 0.00 | 97 | 1010.4 |
| 20260904102027 | 59 | 246 | 1.0 | 4.0 | 0.00 | 0.01 | 0.00 | 97 | 1010.3 |
| 20260904101550 | 59 | 252 | 0.0 | 4.0 | 0.00 | 0.01 | 0.00 | 97 | 1010.3 |
| 20260904101031 | 59 | 0 | 0.0 | 3.0 | 0.00 | 0.01 | 0.00 | 97 | 1010.4 |
| 20260904100531 | 59 | 254 | 0.0 | 4.0 | 0.00 | 0.01 | 0.00 | 97 | 1010.2 |
| 20260904100049 | 59 | 252 | 1.0 | 4.0 | 0.00 | 0.01 | 0.00 | 97 | 1010.2 |
| 20260904095532 | 59 | 234 | 1.0 | 4.0 | 0.00 | 0.01 | 0.00 | 97 | 1010.1 |
| 20260904095031 | 59 | 241 | 2.0 | 6.0 | 0.00 | 0.01 | 0.00 | 97 | 1010.2 |
| 20260904094556 | 59 | 277 | 2.0 | 6.0 | 0.00 | 0.01 | 0.00 | 97 | 1010.2 |
| 20260904094030 | 59 | 249 | 2.0 | 3.0 | 0.00 | 0.01 | 0.00 | 97 | 1010.2 |
| 20260904093532 | 59 | 247 | 1.0 | 6.0 | 0.00 | 0.01 | 0.00 | 97 | 1010.2 |
| 20260904093052 | 59 | 255 | 2.0 | 6.0 | 0.00 | 0.01 | 0.00 | 97 | 1010.2 |
| 20260904092528 | 60 | 260 | 1.0 | 4.0 | 0.00 | 0.01 | 0.00 | 97 | 1010.2 |
| 20260904092030 | 60 | 258 | 2.0 | 4.0 | 0.00 | 0.01 | 0.00 | 97 | 1010.1 |
| 20260904091547 | 60 | 269 | 1.0 | 5.0 | 0.00 | 0.01 | 0.00 | 97 | 1010.2 |
| 20260904091033 | 60 | 274 | 1.0 | 6.0 | 0.00 | 0.01 | 0.00 | 97 | 1010.3 |
| 20260904090531 | 60 | 252 | 1.0 | 6.0 | 0.00 | 0.01 | 0.00 | 97 | 1010.2 |
| 20260904090042 | 60 | 285 | 1.0 | 4.0 | 0.00 | 0.01 | 0.00 | 97 | 1010.2 |
| 20260904085533 | 60 | 265 | 1.0 | 3.0 | 0.00 | 0.01 | 0.00 | 97 | 1010.2 |
| 20260904085028 | 60 | 0 | 1.0 | 3.0 | 0.00 | 0.01 | 0.00 | 97 | 1010.2 |
| 20260904084558 | 60 | 261 | 1.0 | 3.0 | 0.00 | 0.01 | 0.00 | 98 | 1010.2 |
| 20260904084030 | 60 | 0 | 1.0 | 3.0 | 0.00 | 0.01 | 0.00 | 98 | 1010.2 |
| 20260904083530 | 60 | 340 | 0.0 | 3.0 | 0.00 | 0.01 | 0.00 | 97 | 1010.2 |
| 20260904083051 | 60 | 0 | 0.0 | 2.0 | 0.00 | 0.01 | 0.00 | 98 | 1010.1 |
| 20260904082532 | 60 | 0 | 0.0 | 2.0 | 0.00 | 0.01 | 0.00 | 98 | 1010.0 |
| 20260904082030 | 60 | 0 | 0.0 | 2.0 | 0.00 | 0.01 | 0.00 | 98 | 1010.1 |
| 20260904081544 | 60 | 336 | 0.0 | 1.0 | 0.00 | 0.01 | 0.00 | 98 | 1010.2 |
| 20260904081035 | 60 | 0 | 0.0 | 1.0 | 0.00 | 0.01 | 0.00 | 98 | 1010.2 |
| 20260904080531 | 60 | 0 | 0.0 | 1.0 | 0.00 | 0.01 | 0.00 | 98 | 1010.0 |
| 20260904080114 | 59 | 0 | 0.0 | 1.0 | 0.00 | 0.01 | 0.00 | 97 | 1010.0 |
| 20260904075531 | 59 | 0 | 0.0 | 1.0 | 0.00 | 0.01 | 0.00 | 97 | 1010.1 |
| 20260904075033 | 59 | 0 | 0.0 | 1.0 | 0.00 | 0.01 | 0.00 | 96 | 1010.2 |
| 20260904074550 | 59 | 0 | 0.0 | 0.0 | 0.00 | 0.01 | 0.00 | 96 | 1010.2 |
| 20260904074030 | 60 | 0 | 0.0 | 0.0 | 0.00 | 0.01 | 0.00 | 97 | 1010.2 |
| 20260904073533 | 60 | 0 | 0.0 | 1.0 | 0.00 | 0.01 | 0.00 | 97 | 1010.2 |
| 20260904073048 | 60 | 0 | 0.0 | 1.0 | 0.00 | 0.01 | 0.00 | 97 | 1010.2 |
| 20260904072531 | 60 | 336 | 0.0 | 2.0 | 0.00 | 0.01 | 0.00 | 98 | 1010.4 |
| 20260904072030 | 60 | 0 | 0.0 | 2.0 | 0.00 | 0.01 | 0.00 | 98 | 1010.5 |
| 20260904071547 | 60 | 0 | 0.0 | 2.0 | 0.00 | 0.01 | 0.00 | 97 | 1010.4 |
| 20260904071030 | 60 | 336 | 0.0 | 2.0 | 0.00 | 0.01 | 0.00 | 97 | 1010.5 |
| 20260904070531 | 59 | 0 | 0.0 | 2.0 | 0.00 | 0.01 | 0.00 | 98 | 1010.6 |
| 20260904070050 | 59 | 336 | 0.0 | 1.0 | 0.00 | 0.01 | 0.00 | 98 | 1010.7 |
| 20260904065529 | 58 | 0 | 0.0 | 1.0 | 0.00 | 0.06 | 0.00 | 97 | 1010.6 |
| 20260904065029 | 58 | 0 | 0.0 | 1.0 | 0.00 | 0.06 | 0.00 | 97 | 1010.7 |
| 20260904064543 | 58 | 0 | 0.0 | 0.0 | 0.00 | 0.06 | 0.00 | 96 | 1010.6 |
| 20260904064030 | 58 | 0 | 0.0 | 1.0 | 0.00 | 0.06 | 0.00 | 97 | 1010.6 |
| 20260904063527 | 59 | 0 | 0.0 | 1.0 | 0.00 | 0.06 | 0.00 | 97 | 1010.7 |
| 20260904063109 | 59 | 0 | 0.0 | 1.0 | 0.00 | 0.06 | 0.00 | 96 | 1010.7 |
| 20260904062529 | 59 | 0 | 0.0 | 0.0 | 0.00 | 0.06 | 0.00 | 96 | 1010.7 |
| 20260904062030 | 60 | 0 | 0.0 | 1.0 | 0.00 | 0.06 | 0.00 | 97 | 1010.7 |
| 20260904061543 | 60 | 0 | 0.0 | 1.0 | 0.00 | 0.06 | 0.00 | 97 | 1010.7 |
| 20260904061030 | 60 | 0 | 0.0 | 1.0 | 0.00 | 0.06 | 0.00 | 97 | 1010.7 |
| 20260904060530 | 60 | 258 | 0.0 | 1.0 | 0.00 | 0.06 | 0.00 | 97 | 1010.8 |
| 20260904060055 | 60 | 0 | 0.0 | 1.0 | 0.00 | 0.06 | 0.00 | 97 | 1010.8 |
| 20260904055534 | 60 | 0 | 0.0 | 1.0 | 0.00 | 0.06 | 0.00 | 97 | 1010.9 |
| 20260904055029 | 60 | 0 | 0.0 | 1.0 | 0.00 | 0.06 | 0.00 | 97 | 1011.0 |
| 20260904054554 | 60 | 0 | 0.0 | 1.0 | 0.00 | 0.06 | 0.00 | 96 | 1011.2 |
| 20260904054032 | 60 | 0 | 0.0 | 1.0 | 0.00 | 0.06 | 0.00 | 97 | 1011.2 |
| 20260904053527 | 60 | 0 | 0.0 | 1.0 | 0.00 | 0.06 | 0.00 | 97 | 1011.3 |
| 20260904053059 | 60 | 0 | 0.0 | 1.0 | 0.00 | 0.06 | 0.00 | 97 | 1011.4 |
| 20260904052529 | 60 | 0 | 0.0 | 1.0 | 0.00 | 0.06 | 0.00 | 96 | 1011.5 |
| 20260904052029 | 61 | 0 | 0.0 | 1.0 | 0.00 | 0.06 | 0.00 | 96 | 1011.5 |
| 20260904051545 | 61 | 0 | 0.0 | 1.0 | 0.00 | 0.06 | 0.00 | 97 | 1011.3 |
| 20260904051033 | 61 | 258 | 0.0 | 1.0 | 0.00 | 0.06 | 0.00 | 97 | 1011.5 |
| 20260904050529 | 62 | 0 | 0.0 | 1.0 | 0.00 | 0.06 | 0.00 | 97 | 1011.5 |
| 20260904050045 | 62 | 0 | 0.0 | 1.0 | 0.00 | 0.06 | 0.00 | 97 | 1011.6 |
| 20260904045528 | 62 | 0 | 0.0 | 1.0 | 0.00 | 0.06 | 0.00 | 97 | 1011.5 |
| 20260904045030 | 61 | 0 | 0.0 | 1.0 | 0.00 | 0.06 | 0.00 | 97 | 1011.5 |
| 20260904044559 | 62 | 0 | 0.0 | 1.0 | 0.00 | 0.06 | 0.00 | 97 | 1011.6 |
| 20260904044034 | 62 | 0 | 0.0 | 1.0 | 0.00 | 0.06 | 0.00 | 97 | 1011.5 |
| 20260904043529 | 62 | 0 | 0.0 | 1.0 | 0.00 | 0.06 | 0.00 | 97 | 1011.4 |
| 20260904043058 | 62 | 0 | 0.0 | 1.0 | 0.00 | 0.06 | 0.00 | 97 | 1011.7 |
| 20260904042529 | 62 | 0 | 0.0 | 1.0 | 0.00 | 0.06 | 0.00 | 97 | 1011.7 |
| 20260904042032 | 62 | 0 | 0.0 | 1.0 | 0.00 | 0.06 | 0.00 | 97 | 1011.7 |
| 20260904041548 | 62 | 0 | 0.0 | 3.0 | 0.00 | 0.06 | 0.00 | 97 | 1011.7 |
| 20260904041029 | 62 | 258 | 0.0 | 3.0 | 0.00 | 0.06 | 0.00 | 97 | 1011.6 |
| 20260904040529 | 62 | 0 | 1.0 | 3.0 | 0.00 | 0.06 | 0.00 | 97 | 1011.6 |
| 20260904040046 | 61 | 0 | 0.0 | 2.0 | 0.00 | 0.06 | 0.00 | 97 | 1011.7 |
| 20260904035531 | 61 | 281 | 0.0 | 2.0 | 0.00 | 0.06 | 0.06 | 97 | 1011.8 |
| 20260904035031 | 61 | 0 | 0.0 | 2.0 | 0.00 | 0.06 | 0.06 | 97 | 1011.8 |
| 20260904034604 | 61 | 0 | 0.0 | 1.0 | 0.00 | 0.06 | 0.06 | 97 | 1011.8 |
| 20260904034032 | 61 | 0 | 0.0 | 2.0 | 0.00 | 0.06 | 0.06 | 97 | 1011.9 |
| 20260904033534 | 61 | 0 | 0.0 | 2.0 | 0.00 | 0.06 | 0.06 | 97 | 1011.9 |
| 20260904033048 | 61 | 0 | 0.0 | 1.0 | 0.00 | 0.06 | 0.06 | 97 | 1012.0 |
| 20260904032529 | 61 | 0 | 0.0 | 1.0 | 0.00 | 0.06 | 0.06 | 97 | 1011.8 |
| 20260904032029 | 61 | 0 | 0.0 | 1.0 | 0.00 | 0.06 | 0.06 | 97 | 1012.0 |
| 20260904031548 | 61 | 0 | 0.0 | 0.0 | 0.00 | 0.06 | 0.06 | 96 | 1012.1 |
| 20260904031030 | 61 | 0 | 0.0 | 0.0 | 0.00 | 0.06 | 0.06 | 96 | 1012.1 |
| 20260904030531 | 61 | 0 | 0.0 | 0.0 | 0.00 | 0.06 | 0.06 | 97 | 1012.0 |
| 20260904030056 | 61 | 0 | 0.0 | 0.0 | 0.00 | 0.06 | 0.06 | 96 | 1012.1 |
| 20260904025527 | 61 | 0 | 0.0 | 0.0 | 0.00 | 0.06 | 0.06 | 96 | 1012.1 |
| 20260904025030 | 61 | 0 | 0.0 | 0.0 | 0.00 | 0.06 | 0.06 | 95 | 1012.2 |
| 20260904024544 | 61 | 0 | 0.0 | 0.0 | 0.00 | 0.06 | 0.06 | 96 | 1012.2 |
| 20260904024031 | 61 | 0 | 0.0 | 2.0 | 0.00 | 0.06 | 0.06 | 96 | 1012.2 |
| 20260904023531 | 62 | 0 | 0.0 | 2.0 | 0.00 | 0.06 | 0.06 | 96 | 1012.2 |
| 20260904023043 | 62 | 5 | 0.0 | 1.0 | 0.00 | 0.06 | 0.06 | 96 | 1012.1 |
| 20260904022529 | 62 | 0 | 0.0 | 1.0 | 0.00 | 0.06 | 0.06 | 96 | 1012.1 |
| 20260904022032 | 62 | 0 | 0.0 | 1.0 | 0.00 | 0.06 | 0.06 | 96 | 1012.0 |
| 20260904021556 | 62 | 0 | 0.0 | 2.0 | 0.00 | 0.06 | 0.06 | 95 | 1012.1 |
| 20260904021028 | 62 | 0 | 0.0 | 2.0 | 0.00 | 0.06 | 0.06 | 95 | 1012.3 |
| 20260904020528 | 62 | 5 | 0.0 | 2.0 | 0.00 | 0.06 | 0.06 | 96 | 1012.2 |
| 20260904020045 | 62 | 0 | 0.0 | 2.0 | 0.00 | 0.06 | 0.06 | 95 | 1012.2 |
| 20260904015532 | 63 | 5 | 0.0 | 2.0 | 0.00 | 0.06 | 0.06 | 96 | 1012.2 |
| 20260904015030 | 63 | 5 | 1.0 | 2.0 | 0.00 | 0.06 | 0.06 | 96 | 1012.3 |
| 20260904014546 | 63 | 5 | 0.0 | 1.0 | 0.00 | 0.06 | 0.06 | 95 | 1012.4 |
| 20260904014031 | 63 | 0 | 0.0 | 2.0 | 0.00 | 0.06 | 0.06 | 95 | 1012.5 |
| 20260904013527 | 63 | 0 | 0.0 | 2.0 | 0.00 | 0.06 | 0.06 | 95 | 1012.5 |
| 20260904013045 | 63 | 5 | 1.0 | 2.0 | 0.00 | 0.06 | 0.06 | 95 | 1012.4 |
| 20260904012527 | 63 | 5 | 1.0 | 2.0 | 0.00 | 0.06 | 0.06 | 95 | 1012.4 |
| 20260904012031 | 63 | 5 | 1.0 | 2.0 | 0.00 | 0.06 | 0.06 | 95 | 1012.3 |
| 20260904011631 | 64 | 5 | 1.0 | 3.0 | 0.00 | 0.06 | 0.06 | 95 | 1012.3 |
| 20260904011028 | 64 | 5 | 1.0 | 3.0 | 0.00 | 0.06 | 0.06 | 95 | 1012.4 |
| 20260904010527 | 64 | 5 | 1.0 | 3.0 | 0.00 | 0.06 | 0.06 | 95 | 1012.4 |
| 20260904010049 | 64 | 5 | 0.0 | 2.0 | 0.00 | 0.06 | 0.06 | 95 | 1012.4 |
| 20260904005528 | 64 | 0 | 0.0 | 2.0 | 0.00 | 0.06 | 0.06 | 95 | 1012.2 |
| 20260904005028 | 64 | 0 | 0.0 | 1.0 | 0.00 | 0.06 | 0.06 | 95 | 1012.6 |
| 20260904004554 | 64 | 0 | 0.0 | 1.0 | 0.00 | 0.06 | 0.06 | 95 | 1012.3 |
| 20260904004033 | 65 | 0 | 0.0 | 1.0 | 0.00 | 0.06 | 0.06 | 95 | 1012.1 |
| 20260904003534 | 65 | 0 | 0.0 | 1.0 | 0.00 | 0.06 | 0.06 | 94 | 1012.1 |
| 20260904003053 | 65 | 0 | 0.0 | 1.0 | 0.00 | 0.06 | 0.06 | 94 | 1012.0 |
| 20260904002529 | 65 | 0 | 0.0 | 1.0 | 0.00 | 0.06 | 0.06 | 94 | 1012.0 |
| 20260904002031 | 65 | 0 | 0.0 | 2.0 | 0.00 | 0.06 | 0.06 | 94 | 1012.0 |
| 20260904001552 | 65 | 0 | 0.0 | 2.0 | 0.00 | 0.06 | 0.06 | 94 | 1012.0 |
| 20260904001032 | 65 | 0 | 1.0 | 2.0 | 0.00 | 0.06 | 0.06 | 94 | 1011.9 |
| 20260904000529 | 65 | 59 | 0.0 | 2.0 | 0.00 | 0.06 | 0.06 | 93 | 1011.9 |
| 20260904000047 | 66 | 0 | 0.0 | 2.0 | 0.00 | 0.06 | 0.06 | 93 | 1011.6 |
| 20260903235531 | 66 | 57 | 0.0 | 2.0 | 0.00 | 0.06 | 0.06 | 93 | 1011.6 |
| 20260903235031 | 66 | 57 | 1.0 | 2.0 | 0.00 | 0.06 | 0.06 | 92 | 1011.6 |
| 20260903234545 | 66 | 92 | 0.0 | 2.0 | 0.00 | 0.06 | 0.06 | 93 | 1011.5 |